This is the latest recevied weather packets stored in our database for station/object G1OCN-WX. If no packets are shown the sender has not sent any weather packets the latest 1 day(s).
| Time | Temp. | Humidity | Pressure | Rain* | Wind** | Luminosity | Snow |
|---|---|---|---|---|---|---|---|
| 1778056167 | 8.89° C | 83% | 1014 hPa | 0.25 mm | 3.58 m/s, 68° | - | - |
| 1778056107 | 8.89° C | 83% | 1014 hPa | 0.25 mm | 3.58 m/s, 59° | - | - |
| 1778056047 | 8.33° C | 83% | 1013.9 hPa | 0.25 mm | 3.58 m/s, 57° | - | - |
| 1778055986 | 8.33° C | 83% | 1013.9 hPa | 0.25 mm | 4.47 m/s, 68° | - | - |
| 1778055926 | 8.33° C | 83% | 1013.9 hPa | 0.25 mm | 4.47 m/s, 63° | - | - |
| 1778055866 | 8.33° C | 83% | 1013.9 hPa | 0.25 mm | 4.02 m/s, 59° | - | - |
| 1778055817 | 8.33° C | 83% | 1013.9 hPa | 0.25 mm | 3.58 m/s, 60° | - | - |
| 1778055746 | 8.33° C | 83% | 1013.9 hPa | 0.25 mm | 4.02 m/s, 64° | - | - |
| 1778055686 | 8.33° C | 83% | 1013.8 hPa | 0.25 mm | 4.47 m/s, 62° | - | - |
| 1778055626 | 8.33° C | 84% | 1013.8 hPa | 0.25 mm | 4.47 m/s, 62° | - | - |
| 1778055566 | 8.33° C | 84% | 1013.8 hPa | 0.25 mm | 4.47 m/s, 63° | - | - |
| 1778055506 | 8.33° C | 84% | 1013.9 hPa | 0.25 mm | 4.02 m/s, 65° | - | - |
| 1778055446 | 8.33° C | 84% | 1013.8 hPa | 0.25 mm | 4.47 m/s, 62° | - | - |
| 1778055386 | 8.33° C | 84% | 1013.8 hPa | 0.25 mm | 4.47 m/s, 62° | - | - |
| 1778055326 | 8.33° C | 84% | 1013.8 hPa | 0.25 mm | 4.02 m/s, 62° | - | - |
| 1778055266 | 8.33° C | 84% | 1013.9 hPa | 0.25 mm | 4.02 m/s, 65° | - | - |
| 1778055206 | 8.33° C | 84% | 1013.8 hPa | 0.25 mm | 3.58 m/s, 69° | - | - |
| 1778055146 | 8.33° C | 84% | 1013.8 hPa | 0.25 mm | 5.36 m/s, 69° | - | - |
| 1778055086 | 8.33° C | 84% | 1013.8 hPa | 0.25 mm | 4.47 m/s, 67° | - | - |
| 1778055025 | 8.33° C | 84% | 1013.8 hPa | 0.25 mm | 3.58 m/s, 64° | - | - |
| 1778054965 | 8.33° C | 84% | 1013.8 hPa | 0.25 mm | 3.58 m/s, 63° | - | - |
| 1778054905 | 8.33° C | 84% | 1013.8 hPa | 0.25 mm | 4.02 m/s, 67° | - | - |
| 1778054845 | 8.33° C | 84% | 1013.8 hPa | 0.25 mm | 4.02 m/s, 68° | - | - |
| 1778054785 | 8.33° C | 85% | 1013.8 hPa | 0.25 mm | 3.58 m/s, 68° | - | - |
| 1778054725 | 8.33° C | 85% | 1013.8 hPa | 0.25 mm | 3.13 m/s, 63° | - | - |
* Rain latest hour (hover to see other rain measurements)
** Current wind speed in m/s (hover to see current wind gust speed)